Regional Weather Roundup
Issued by NWS

Home | Current Version | Previous Version | Graphics & Text | Print | Product List | Glossary On
Versions: 1 2 3 4 5 6 7 8 9 10 11 12 13 14 15 16 17 18 19 20 21 22 23 24 25 26 27 28 29 30 31 32 33 34 35 36 37 38 39 40 41 42 43 44 45 46 47 48 49 50
000
ASUS45 KCYS 240410
RWRWY

WYOMING REGIONAL WEATHER ROUNDUP
NATIONAL WEATHER SERVICE CHEYENNE WY
1000 PM MDT FRI SEP 23 2016

NOTE:  "FAIR" INDICATES FEW OR NO CLOUDS BELOW 12,000 FEET
WITH NO SIGNIFICANT WEATHER AND/OR OBSTRUCTIONS TO VISIBILITY.

WYZ001-240500-
YELLOWSTONE NATIONAL PARK

CITY           SKY/WX    TMP DP  RH WIND       PRES   REMARKS
LK YELLOWSTONE   N/A     42  41  96 VRB6      29.98F
W YELLOWSTONE  NOT AVBL

$$
WYZ002>013-054>058-071-098>099-240500-
NORTHERN WYOMING

CITY           SKY/WX    TMP DP  RH WIND       PRES   REMARKS
JACKSON        CLOUDY    41  41 100 SW8       30.01R
CODY           MOCLDY    46  45  93 SE10      29.95F
GREYBULL       RAIN      51  49  92 S6        29.92S
WORLAND        CLOUDY    50  47  89 CALM      29.92F
SHERIDAN       RAIN      51  49  92 SW6       29.95R
BUFFALO        LGT RAIN  50  47  89 N7        29.95F
GILLETTE       LGT RAIN  50  50 100 W9        29.90F
HULETT         DRIZZLE   55  54  94 N6        29.87R
NEWCASTLE      MOCLDY    50  48  93 N8        29.91S

$$
WYZ014>020-022>026-101>103-240500-
CENTRAL WYOMING

CITY           SKY/WX    TMP DP  RH WIND       PRES   REMARKS
BIG PINEY      LGT RAIN  41  38  89 NW3       30.03S
PINEDALE       LGT RAIN  37  36  93 SE3       30.05R
DUBOIS         CLOUDY    41  37  87 SE8       30.00R
LANDER         FAIR      47  42  83 NW8       29.94R
RIVERTON       FAIR      46  43  89 S5        29.94R
CASPER         CLOUDY    47  39  74 SW8       29.98S
DOUGLAS        CLOUDY    49  38  65 NW13      29.94S

$$
WYZ021-027>030-104>119-240500-
SOUTHERN WYOMING

CITY           SKY/WX    TMP DP  RH WIND       PRES   REMARKS
EVANSTON       CLOUDY    37  34  89 SW13      30.06S WCI  29
FORT BRIDGER   CLOUDY    38  38 100 W12       30.08F WCI  31
ROCK SPRINGS   CLOUDY    38  36  92 SW7       30.04S WCI  33
DIXON          CLOUDY    44  35  72 S6        30.08F
RAWLINS        CLOUDY    43  33  68 SW8       30.03F
SARATOGA       CLOUDY    43  32  65 SW7       30.05S
LARAMIE        RAIN      35  33  92 W5        30.06S FOG     WCI  31
CHEYENNE       LGT RAIN  44  35  70 W30G47    29.92R
TORRINGTON     LGT RAIN  52  48  86 CALM      29.91R
PINE BLUFFS    CLOUDY    50  41  71 NW13G20   29.95R

$$



USA.gov is the U.S. government's official web portal to all federal, state and local government web resources and services.